Miscellaneous Local Product
Issued by NWS Hastings, NE

Home | Current Version | Previous Version | Graphics & Text | Print | Product List | Glossary On
Versions: 1 2 3 4 5 6 7 8 9 10 11 12 13 14 15 16 17 18 19 20 21 22 23 24 25 26 27 28 29 30 31 32 33 34 35 36 37 38 39 40 41 42 43 44 45 46 47 48 49 50
000
AXUS43 KGID 220402
MISGRI

GID CWA HOURLY WEATHER ROUNDUP
NATIONAL WEATHER SERVICE HASTINGS NE
1100 PM CDT THU MAY 21 2015

NOTE: "FAIR" INDICATES FEW OR NO CLOUDS BELOW 12,000 FEET WITH NO
SIGNIFICANT WEATHER AND/OR OBSTRUCTIONS TO VISIBILITY.

...SOUTH CENTRAL NEBRASKA...

CITY           SKY/WX    TMP DP  RH WIND       PRES   REMARKS
GRAND ISLAND   PTCLDY    54  40  59 CALM      30.23R
HASTINGS       PTCLDY    54  39  57 S5        30.22R
KEARNEY        PTCLDY    54  39  58 S5        30.22S
ORD            PTCLDY    49  38  65 CALM      30.20R
YORK           PTCLDY    55  43  62 CALM      30.22R
AURORA         PTCLDY    53  40  60 CALM      30.22R
LEXINGTON      PTCLDY    51  43  73 S5        30.21R
HOLDREGE       MOCLDY    52  41  66 S6        30.22R
HEBRON         MOCLDY    55  41  60 SW6       30.23R

...NEBRASKA PANHANDLE...

CITY           SKY/WX    TMP DP  RH WIND       PRES   REMARKS
CHADRON        CLOUDY    55  45  68 SE12      30.14R
ALLIANCE       CLOUDY    52  44  74 SE12      30.16R
SCOTTSBLUFF    CLOUDY    52  45  77 SE15      30.14R
SIDNEY         CLOUDY    51  44  77 SE13      30.18R

...WESTERN AND NORTH CENTRAL NEBRASKA...

CITY           SKY/WX    TMP DP  RH WIND       PRES   REMARKS
VALENTINE      CLEAR     52  36  54 SE10      30.18R
AINSWORTH      CLEAR     50  37  61 SE5       30.19R
ONEILL         CLEAR     57  37  46 S3        30.21R
BROKEN BOW     PTCLDY    46  42  86 CALM      30.20R
IMPERIAL       CLOUDY    52  45  77 SE6       30.19R
NORTH PLATTE   CLOUDY    54  42  64 S7        30.21R
MCCOOK         CLOUDY    52  43  71 SE7       30.21R

...EASTERN NEBRASKA...

CITY           SKY/WX    TMP DP  RH WIND       PRES   REMARKS
NORFOLK        CLEAR     51  40  65 SW9       30.19R
SO SIOUX CITY  FAIR      56  38  50 W8        30.15R
TEKAMAH        CLEAR     59  40  49 W12       30.16R
COLUMBUS       CLEAR     57  37  47 SW6       30.23R
ALBION         PTCLDY    48  39  71 CALM      30.21R
OMAHA EPPLEY   PTCLDY    62  40  44 W6        30.17R
OFFUTT AFB     CLEAR     59  42  52 W5        30.17R
MILLARD        CLEAR     59  43  54 W3        30.18R
LINCOLN        PTCLDY    58  41  53 W5        30.21R
NEBRASKA CITY  PTCLDY    53  38  56 W8        30.19R
BEATRICE       PTCLDY    55  44  65 SW3       30.22R
FALLS CITY     PTCLDY    57  43  59 SW8       30.19R

...NORTHERN KANSAS...

CITY           SKY/WX    TMP DP  RH WIND       PRES   REMARKS
GOODLAND       CLOUDY    51  45  79 SE6       30.20R
HILL CITY      CLOUDY    51  44  77 S5        30.22R
NORTON         CLEAR     54  39  58 SE7       30.22R
PHILLIPSBURG   CLEAR     54  46  76 E3        30.23R
SMITH CENTER   CLEAR     50  45  81 SE7       30.23S
HAYS           MOCLDY    52  39  62 SE7       30.22F
RUSSELL        MOCLDY    51  46  83 SE7       30.22R
CONCORDIA      MOCLDY    53  43  68 SW7       30.24R
SALINA         PTCLDY    54  46  74 S6        30.24R
TOPEKA         MOCLDY    55  50  83 CALM      30.23R



USA.gov is the U.S. government's official web portal to all federal, state and local government web resources and services.